Location: Betz
(49.1556°N, 2.9558°E)
Time: 00:45:54
(UTC+00:00)

Cosmos 1140 Rocket - Pass Details

Date: 18 September 2019
Orbit: 745 x 767 km, 74.1° (Epoch: 20 October)

Event Time Altitude Azimuth Distance (km) Brightness Sun altitude
Rises 20:18:07 0° 333° (NNW) 3,225 7.7 -22.8°
Reaches altitude 10° 20:20:32 10° 329° (NNW) 2,292 6.8 -23.2°
Maximum altitude 20:25:34 53° 253° (WSW) 926 4.1 -23.9°
Enters shadow 20:27:30 34° 197° (SSW) 1,226 4.4 -24.1°
